Regional Weather Roundup
Issued by NWS Kansas City/Pleasant Hill, MO

Home | Current Version | Previous Version | Text Only | Print | Product List | Glossary On
Versions: 1 2 3 4 5 6 7 8 9 10 11 12 13 14 15 16 17 18 19 20 21 22 23 24 25 26 27 28 29 30 31 32 33 34 35 36 37 38 39 40 41 42 43 44 45 46 47 48 49 50
000
ASUS43 KEAX 011211
RWREAX

WEATHER ROUNDUP FOR EASTERN KANSAS AND NORTHWEST MISSOURI
NATIONAL WEATHER SERVICE KANSAS CITY/PLEASANT HILL MO
700 AM CDT WED OCT 01 2014

KSZ040-057-103>105-MOZ028-029-037-043-011300-
...KANSAS CITY METROPOLITAN AREA...

CITY           SKY/WX    TMP DP  RH WIND       PRES   REMARKS
K.C. INTL      CLOUDY    64  63  96 E9        29.77F
6HR MIN TEMP:  63; 6HR MAX TEMP:  70; 6HR PCP:  1.17;

K.C. DOWNTOWN  TSTM      67  64  90 E6        29.77R FOG
6HR MIN TEMP:  67; 6HR MAX TEMP:  73; 6HR PCP:  0.23;

LEES SUMMIT    TSTM      66  60  81 SW3       29.79R
6HR MIN TEMP:  66; 6HR MAX TEMP:  69; 6HR PCP:  0.11;

OLATHE - IXD   MOCLDY    67  61  81 S6        29.76S
6HR MIN TEMP:  67; 6HR MAX TEMP:  68; 6HR PCP:  0.01;

OLATHE - OJC   MOCLDY    67  61  81 S7        29.76S
6HR MIN TEMP:  65; 6HR MAX TEMP:  68; 6HR PCP:  0.01;

LAWRENCE       MOCLDY    64  62  93 E6        29.75S

$$

MOZ001>008-011>017-020>025-030>033-038>040-044>046-053-054-011300-
...NORTHERN AND CENTRAL MISSOURI...

CITY           SKY/WX    TMP DP  RH WIND       PRES   REMARKS
ST. JOSEPH     CLOUDY    65  63  93 SE12      29.75S
6HR MIN TEMP:  65; 6HR MAX TEMP:  73; 6HR PCP:  1.94;

MOSBY          CLOUDY    64  64 100 NE8       29.79F THUNDER
WHITEMAN AFB   MOCLDY    66  57  72 S9        29.79S
6HR MIN TEMP:  62; 6HR MAX TEMP:  67;

CLINTON        MOCLDY    68  61  77 S8        29.80S THUNDER HAZE
SEDALIA        MOCLDY    68  56  65 S12       29.81S
6HR MIN TEMP:  64; 6HR MAX TEMP:  68;

WARSAW         NOT AVBL
MARSHALL       CLOUDY    66  59  77 E6        29.81S
CHILLICOTHE      N/A     67  59  75 CALM      29.86R
6HR MIN TEMP:  65; 6HR MAX TEMP:  69;

MOBERLY        MOCLDY    61  55  82 SE8       29.85R
KIRKSVILLE     CLOUDY    61  50  67 E6        29.86R HAZE
6HR MIN TEMP:  59; 6HR MAX TEMP:  62;


$$

MOZ041-047>049-056>058-063>065-088>090-097-011300-
...EASTERN AND SOUTHERN MISSOURI...

CITY           SKY/WX    TMP DP  RH WIND       PRES   REMARKS
ST. LOUIS INTL PTCLDY    63  59  87 E9        29.91S
6HR MIN TEMP:  62; 6HR MAX TEMP:  68;

SPIRIT OF STL  PTCLDY    63  59  87 CALM      29.89R
COLUMBIA       CLOUDY    62  55  77 SE8       29.85S
JEFFERSON CITY CLOUDY    63  55  75 E6        29.85S
MEXICO         CLEAR    N/A N/A N/A SE3       29.87R HAZE
HANNIBAL       CLEAR     59  57  94 E5        29.88S
ROLLA          MOCLDY    62  53  72 SE8       29.87R
LEBANON        CLEAR     64  54  68 S8        29.87R
OSAGE BEACH    MOCLDY    63  54  72 SE6       29.85R
SPRINGFIELD    CLEAR     64  56  75 SE12      29.84R
BRANSON        CLEAR     64  57  77 SE6       29.87F
NEVADA         PTCLDY    66  59  77 S9        29.80R HAZE
JOPLIN         PTCLDY    70  60  70 S13       29.80R
WEST PLAINS    PTCLDY    57  53  86 CALM      29.91R

$$

IAZ060-094-KSZ022-034>040-054-083-096-NEZ052-066-093-011300-
...KANSAS...SOUTHEAST NEBRASKA AND IOWA...

CITY           SKY/WX    TMP DP  RH WIND       PRES   REMARKS
TOPEKA         MOCLDY    65  64  97 E6        29.73F
6HR MIN TEMP:  65; 6HR MAX TEMP:  75; 6HR PCP:  0.09;

MANHATTAN      CLEAR     67  65  93 SW8       29.70R
EMPORIA        PTCLDY    67  63  87 S16       29.72S
CHANUTE        PTCLDY    69  62  78 S12       29.76S
WICHITA        MOCLDY    69  64  84 SE9       29.72S
OMAHA          LGT RAIN  62  59  90 SE10      29.73R
LINCOLN        CLOUDY    62  59  90 SE3       29.72S
FALLS CITY     CLOUDY    65  63  93 E5        29.72R
LAMONI         TSTM      63  62  97 E10       29.78F FOG
DES MOINES     HVY RAIN  59  57  93 SE12      29.80S FOG

$$



USA.gov is the U.S. government's official web portal to all federal, state and local government web resources and services.